Simultaneous Nadir Overpasses (SNOs) Predictions

Prediction of SNOs between AQUA and METOP-C Satellite Orbit:

Table of predicted SNOs for the next 14.0 days since TLE Epoch: 4/3/2021
Index Date (AQUA) Time (AQUA) Lat,Lon (AQUA) SZA (AQUA ) Date (METOP-C) Time (METOP-C) Lat,Lon (METOP-C) SZA (METOP-C ) Distance(km) Time Diff (sec)
1 04/03/2021 17:03:27 -73.70, 98.65 111.88 04/03/2021 17:02:46 -73.69, 98.61 111.88 1.78 41
2 04/03/2021 17:52:56 73.76, -93.83 68.17 04/03/2021 17:53:25 73.76, -93.88 68.18 1.69 29
3 04/06/2021 12:37:42 -73.71, 165.06 112.94 04/06/2021 12:37:08 -73.72, 165.09 112.93 1.15 34
4 04/06/2021 13:27:11 73.77, -27.43 67.12 04/06/2021 13:27:47 73.80, -27.40 67.14 2.83 36
5 04/09/2021 08:11:57 -73.73,-128.55 113.98 04/09/2021 08:11:31 -73.70,-128.55 114.00 3.79 26
6 04/09/2021 09:01:26 73.80, 38.95 66.08 04/09/2021 09:02:10 73.78, 38.96 66.06 2.50 44
7 04/12/2021 02:56:32 73.05, 131.68 64.28 04/12/2021 02:55:26 72.97, 128.90 64.30 90.73 66
8 04/12/2021 03:46:10 -73.71, -62.05 115.04 04/12/2021 03:45:52 -73.73, -62.08 115.02 2.14 18
9 04/12/2021 04:35:39 73.78, 105.43 65.02 04/12/2021 04:36:31 73.80, 105.43 65.04 2.62 52
10 04/14/2021 22:30:52 73.35,-162.50 63.58 04/14/2021 22:29:42 73.30,-163.98 63.58 47.60 70
11 04/14/2021 23:20:25 -73.75, 4.31 116.03 04/14/2021 23:20:14 -73.75, 4.39 116.02 2.69 11
12 04/15/2021 00:09:53 73.77, 171.89 63.99 04/15/2021 00:10:54 73.78, 171.78 64.00 3.68 61



Historial Predications of SNOs between AQUA and METOP-C
